Location: Andershausen
(51.8462°N, 9.8595°E)
Time: 23:40:33
(UTC+00:00)

NOAA 6 - Pass Details

Date: 18 November 2025
Orbit: 766 x 782 km, 98.6° (Epoch: 04 December)

Event Time Altitude Azimuth Distance (km) Brightness Sun altitude
Rises 17:19:01 0° 147° (SSE) 3,254 7.0 -17.1°
Reaches altitude 10° 17:21:22 10° 142° (SE) 2,328 6.2 -17.5°
Maximum altitude 17:26:20 52° 68° (ENE) 965 4.1 -18.3°
Drops below altitude 10° 17:31:19 10° 353° (N) 2,334 6.5 -19.0°
Sets 17:33:40 0° 348° (NNW) 3,263 7.3 -19.4°
